Location: *
(2.5500°S, 65.9667°W)
Time: 12:13:58
(UTC+00:00)

NOAA 15 - Pass Details

Date: 26 October 2021
Orbit: 797 x 812 km, 98.7° (Epoch: 29 November)

Event Time Altitude Azimuth Distance (km) Brightness Sun altitude
Rises 23:41:40 0° 166° (SSE) 3,315 7.8 -22.2°
Reaches altitude 10° 23:44:00 10° 165° (SSE) 2,384 7.0 -22.8°
Maximum altitude 23:49:17 83° 77° (ENE) 815 4.4 -24.1°
Drops below altitude 10° 23:54:33 10° 350° (N) 2,382 7.0 -25.3°
Sets 23:56:53 0° 349° (N) 3,312 7.8 -25.9°
